Wind_Speed
42 41 38 37 35 33 27 17 19 19 18 20 26 32 31 36 40 37 28 27 20 22 17 15 15 16 15 11 10 7 6 6 7 8 7 8 6 3 1 2 3 6 9 11 12 12 12 13 12
43 43 40 40 38 33 26 15 25 29 31 27 30 39 37 40 36 36 24 30 18 17 16 16 15 17 18 15 11 8 6 6 6 7 6 6 5 4 2 3 4 6 9 12 12 12 12 10 10
46 46 43 44 41 35 22 29 34 36 32 34 35 39 47 49 40 40 35 34 25 15 17 16 17 19 20 20 14 10 7 7 7 7 6 6 5 5 3 2 4 6 10 12 11 11 12 13 13
41 47 49 48 45 33 28 39 41 36 37 38 38 43 54 53 48 42 29 29 28 22 20 19 20 21 23 24 21 15 11 9 8 8 9 7 6 5 3 3 5 8 11 10 9 10 12 13 14
38 41 46 51 49 39 32 41 47 38 39 40 45 46 56 59 51 52 44 35 31 25 21 23 23 23 24 24 25 22 18 13 11 10 11 10 8 7 5 4 5 7 10 10 11 13 14 16 15
39 40 44 45 46 44 34 40 43 44 33 40 42 47 59 62 58 58 49 41 34 27 28 28 27 27 26 25 24 24 23 19 16 14 11 10 10 10 8 6 6 7 9 12 13 14 15 16 15
39 39 40 41 43 42 43 37 38 43 44 33 36 37 64 63 62 60 54 47 38 33 32 32 30 30 29 29 27 24 22 21 19 19 17 14 15 14 13 9 9 7 9 12 14 15 15 15 14
41 42 40 38 38 42 40 41 40 33 33 45 37 44 47 53 60 56 52 50 53 35 36 37 35 33 32 31 28 27 26 23 24 22 20 19 18 16 15 13 12 11 12 13 13 13 18 15 15
41 43 41 36 33 33 40 37 26 28 25 23 30 46 54 57 61 56 48 46 52 47 40 41 39 38 36 33 31 29 26 24 24 23 20 19 20 18 17 16 16 14 15 15 12 12 15 17 16
40 42 38 34 32 32 38 38 30 28 32 33 29 27 40 52 60 55 44 48 48 55 46 43 41 41 40 37 34 32 29 25 23 21 23 21 21 20 19 19 17 18 17 17 13 12 12 17 15
39 38 37 35 34 31 31 48 37 25 31 30 29 32 35 46 50 48 46 46 47 57 50 48 48 44 44 41 39 40 29 30 29 26 23 24 22 20 21 20 20 20 21 19 15 12 11 13 12
40 39 39 37 35 34 34 42 51 36 36 34 38 36 41 49 54 55 40 49 49 51 54 48 51 49 45 43 41 38 35 34 33 30 27 27 26 24 24 22 23 23 25 22 21 17 16 16 16
41 40 41 40 39 38 36 38 52 51 52 38 42 47 39 45 43 44 45 39 54 50 58 54 48 54 51 46 47 45 43 40 37 37 34 31 31 28 28 26 26 25 26 23 21 20 20 19 19
40 42 43 43 42 42 42 40 52 52 49 46 42 55 46 49 44 38 37 41 46 56 53 60 55 52 55 53 51 49 47 45 44 42 39 37 35 33 32 30 30 31 29 25 22 19 21 23 24
39 43 43 44 44 46 48 49 43 51 60 57 59 60 54 51 38 34 35 36 43 48 59 57 59 60 55 57 53 53 53 51 51 47 50 43 39 37 38 33 34 34 32 30 28 24 20 21 16
40 42 42 38 41 41 39 46 41 41 48 57 60 59 60 60 60 64 59 60 61 46 54 58 59 59 62 56 60 63 61 58 53 55 51 46 46 42 43 38 39 37 35 35 28 21 20 18 18
40 42 41 37 35 36 39 45 41 40 45 46 47 51 52 57 59 60 52 48 55 56 49 57 63 61 60 64 63 64 67 64 59 58 63 50 51 45 48 44 43 41 40 41 39 28 20 16 17
34 38 38 34 32 24 29 45 42 43 45 46 47 48 52 52 54 54 52 45 46 50 50 47 62 63 63 65 67 66 63 66 68 58 57 59 53 46 49 47 46 47 43 45 40 30 22 16 15
32 34 34 38 33 23 24 31 38 43 43 46 46 48 51 46 46 48 44 46 46 46 42 48 52 65 66 67 67 68 71 69 67 66 64 66 53 61 46 48 49 52 46 50 49 30 20 17 17
31 28 37 43 35 26 30 37 46 50 47 44 42 46 45 44 45 47 44 40 44 42 43 45 49 55 70 74 72 73 72 66 69 65 67 55 59 61 50 52 56 55 45 52 45 43 30 26 21
30 36 41 38 35 40 40 41 44 48 43 36 39 41 43 45 44 43 42 42 43 45 42 46 51 41 65 70 75 75 77 75 73 74 69 62 77 63 57 54 60 60 54 45 47 35 35 34 35
37 35 33 28 28 40 46 54 52 51 47 48 44 46 46 46 46 44 44 43 45 46 44 41 48 49 49 65 72 77 79 78 79 68 68 64 66 73 64 65 62 57 49 44 51 50 41 34 31
38 32 22 30 34 40 44 59 45 45 42 37 34 34 42 46 49 49 48 46 45 43 41 39 43 50 49 49 71 72 83 81 85 82 68 77 69 62 77 62 60 62 61 57 60 42 40 48 44
33 29 33 38 39 47 37 37 37 29 26 26 30 31 35 36 42 48 51 49 47 44 40 41 41 45 51 52 50 75 71 78 77 80 86 65 69 73 72 68 61 61 74 59 56 56 51 53 47
31 36 32 34 38 35 32 25 28 20 16 21 26 32 34 33 34 40 39 42 43 44 47 44 42 43 45 43 49 53 72 64 75 81 86 88 80 76 75 71 68 62 62 61 57 52 49 46 45
38 42 40 38 34 25 29 29 17 22 20 20 22 34 40 41 31 28 33 36 38 39 43 44 42 41 44 46 47 48 52 50 44 49 77 87 77 81 73 68 66 62 56 54 59 63 52 50 41
33 35 26 37 28 29 29 28 23 23 23 22 27 35 41 42 42 40 38 37 39 38 39 39 38 36 39 44 48 51 52 55 48 45 45 62 82 82 89 69 56 65 53 52 45 47 33 40 24
37 38 31 33 34 37 27 25 34 33 31 24 28 34 40 44 46 43 42 43 44 42 40 40 40 40 39 40 42 45 47 50 49 47 46 43 61 54 47 57 66 71 69 55 33 44 46 28 19
35 34 34 36 32 38 37 30 25 40 39 30 29 38 41 46 48 46 45 43 44 44 43 43 43 43 43 42 44 45 47 47 46 44 43 44 40 39 47 54 67 60 51 40 43 49 45 42 26
39 30 32 33 45 40 31 28 33 32 35 43 32 39 43 40 46 31 34 38 42 44 43 43 45 48 48 48 46 46 47 49 49 48 46 43 42 41 38 40 41 46 49 42 46 42 39 36 26
Wind_Direction
233 234 238 241 239 232 221 213 181 170 193 229 216 236 234 226 232 240 241 251 275 255 239 247 249 251 248 239 244 241 244 253 262 272 275 271 253 233 319 28 45 43 39 37 33 37 43 38 27
234 237 236 241 239 237 224 200 187 190 202 201 218 242 235 233 232 234 232 252 253 237 248 258 257 255 253 240 224 230 240 256 266 274 277 266 243 234 264 11 28 27 35 40 38 38 36 31 21
236 236 237 238 237 235 221 187 198 206 215 207 202 227 241 235 228 228 232 237 249 249 246 270 261 256 256 251 226 221 232 245 257 261 256 244 250 258 278 334 2 18 32 35 37 38 33 29 19
237 235 235 236 238 233 211 209 202 219 228 219 207 218 232 241 234 227 226 230 259 248 245 253 253 252 257 259 254 233 232 245 253 254 256 257 256 264 277 331 347 9 18 26 25 22 17 15 12
235 235 234 235 237 232 221 225 208 213 234 224 209 216 226 233 235 237 232 222 235 242 248 258 253 247 250 252 260 261 245 240 251 260 266 266 260 268 288 310 344 358 8 12 9 8 7 5 4
238 235 233 234 235 230 225 236 233 216 232 242 228 214 223 230 234 236 237 242 227 243 250 251 248 247 245 247 252 261 258 254 254 260 271 274 277 284 291 303 321 352 354 8 7 5 0 359 359
241 240 240 240 237 233 226 223 233 232 226 238 235 219 225 233 233 235 240 240 242 231 247 238 237 241 243 247 252 258 261 264 269 266 270 275 281 288 289 295 304 327 341 347 353 359 359 356 354
243 243 239 237 241 235 229 228 234 236 253 237 233 234 225 233 238 237 238 232 241 230 231 236 230 232 238 243 248 250 260 259 274 272 270 273 280 284 286 293 300 310 329 333 345 354 3 349 354
241 241 238 240 243 242 222 215 234 253 247 250 271 234 239 240 239 238 235 234 236 233 229 227 234 231 232 237 243 249 252 260 264 265 267 268 271 278 283 294 304 308 312 322 329 344 353 351 346
241 244 242 243 244 244 224 207 214 253 254 260 252 244 238 249 247 251 239 236 236 241 228 226 229 234 234 234 241 245 247 257 255 267 267 265 268 273 279 284 295 302 305 309 324 327 337 344 343
240 242 245 243 243 239 232 219 205 233 249 257 256 251 248 254 257 249 238 237 231 240 236 229 225 230 232 236 237 244 244 257 261 265 265 264 266 268 270 275 284 295 300 307 313 310 323 333 328
241 242 243 242 241 239 231 215 211 208 262 242 250 251 247 249 250 251 246 235 234 235 240 229 228 231 231 229 232 239 246 253 259 258 257 258 263 267 267 271 278 284 293 303 307 307 304 312 314
242 241 242 241 242 244 238 221 208 208 220 247 244 245 255 259 253 255 247 247 229 232 236 237 228 231 233 229 233 238 243 248 254 255 255 251 257 262 267 272 274 279 285 294 296 305 312 314 327
244 241 239 241 243 243 242 235 217 220 216 241 247 242 236 251 256 255 249 237 240 225 233 237 233 226 235 238 237 239 240 243 246 245 249 251 248 256 261 265 271 275 282 283 289 295 308 310 310
241 243 246 247 249 245 246 243 243 228 215 222 238 246 246 241 256 240 249 252 244 235 223 235 238 230 234 235 235 238 242 244 248 246 248 251 245 254 259 258 263 266 272 275 280 292 307 311 321
248 250 249 248 254 254 262 249 244 244 237 234 244 254 254 261 255 247 260 261 256 242 231 229 237 235 230 236 238 230 236 239 248 247 241 251 242 251 254 255 258 262 269 273 275 285 284 287 294
250 249 250 248 255 259 258 249 249 245 240 239 238 243 245 249 253 256 253 256 256 243 237 233 232 238 233 234 237 245 235 234 234 244 239 250 239 248 247 254 257 262 266 274 274 272 282 287 299
251 252 250 251 245 258 262 251 248 247 247 246 244 243 244 246 253 257 260 257 256 248 237 241 229 237 239 233 238 240 248 247 237 236 242 250 231 239 245 251 258 261 263 270 273 274 270 283 275
249 249 253 248 234 244 239 253 260 255 251 247 246 245 248 250 252 253 255 252 256 253 238 238 236 234 238 240 238 240 242 243 247 261 242 249 223 240 235 253 259 259 261 263 270 267 266 253 280
243 240 238 239 229 226 219 227 234 243 249 252 252 254 255 255 254 256 256 254 252 258 240 246 240 233 234 235 239 238 241 245 251 256 259 248 239 237 236 255 258 260 259 261 274 268 268 250 252
237 239 248 250 240 219 226 229 240 256 255 251 254 255 253 249 245 248 253 255 256 256 251 238 238 237 232 235 237 241 240 242 243 246 250 255 246 230 235 245 254 260 257 264 265 258 255 267 254
254 254 261 258 249 232 226 241 249 256 260 264 256 248 249 253 256 254 253 249 252 255 257 250 243 245 248 237 237 238 243 239 246 259 237 248 245 248 231 242 248 252 256 267 275 266 260 256 259
265 266 249 241 242 243 236 240 257 257 256 258 257 255 248 247 252 254 255 253 251 250 250 248 243 241 239 252 236 240 237 245 244 249 260 244 241 253 260 245 264 252 255 267 268 257 269 270 257
265 253 252 246 243 250 254 259 256 261 263 260 242 259 245 242 246 248 253 255 254 254 249 246 242 240 242 244 247 236 241 242 246 249 248 250 246 248 253 261 263 265 254 260 262 257 270 276 263
261 260 263 260 268 275 264 260 259 250 221 227 233 242 257 248 245 249 251 254 255 254 253 250 245 244 245 251 248 246 239 251 251 252 253 252 249 244 242 247 260 268 264 271 274 272 276 272 267
249 250 267 261 265 278 272 238 241 239 229 241 243 241 243 251 258 255 247 247 247 247 250 253 251 248 248 246 246 244 244 251 256 255 254 251 260 258 258 257 254 258 262 269 276 281 274 271 267
291 281 283 269 258 271 276 253 228 241 239 236 231 237 249 257 260 261 255 252 251 248 251 252 251 246 243 244 245 248 251 251 259 259 261 255 249 254 254 253 255 253 256 266 270 271 244 245 264
288 272 276 258 253 273 266 254 229 240 208 207 219 239 243 248 259 262 261 258 254 254 252 250 253 255 251 248 249 250 251 250 250 253 256 260 249 243 245 253 259 254 255 256 243 250 275 270 274
258 260 263 259 256 256 262 258 244 252 246 238 249 238 236 242 251 258 262 256 253 252 252 255 255 252 251 250 251 250 253 256 259 257 255 254 261 259 247 249 249 246 244 246 254 258 259 265 285
247 247 252 259 258 251 255 247 249 254 243 249 239 235 248 246 258 251 251 254 257 255 252 255 258 258 257 254 251 251 250 252 255 256 256 254 252 249 250 249 249 243 241 243 253 256 259 265 279
Height
5863 5866 5867 5869 5873 5876 5882 5889 5894 5893 5893 5898 5904 5896 5897 5895 5890 5893 5903 5904 5907 5908 5909 5911 5912 5914 5915 5916 5917 5917 5918 5919 5920 5919 5919 5920 5918 5917 5918 5917 5916 5914 5912 5911 5909 5908 5906 5905 5904
5858 5860 5861 5862 5868 5872 5880 5887 5890 5884 5883 5889 5901 5891 5893 5893 5890 5893 5904 5901 5907 5907 5910 5911 5912 5913 5915 5914 5915 5916 5918 5918 5919 5919 5919 5919 5918 5917 5917 5916 5915 5914 5912 5911 5910 5909 5907 5905 5904
5848 5853 5856 5856 5861 5867 5878 5876 5871 5875 5879 5883 5893 5896 5884 5884 5890 5891 5900 5903 5904 5905 5908 5909 5910 5912 5914 5914 5914 5915 5916 5918 5918 5919 5919 5918 5918 5917 5916 5915 5915 5914 5912 5911 5911 5909 5908 5906 5905
5840 5844 5849 5849 5855 5865 5868 5867 5864 5865 5872 5879 5886 5889 5881 5879 5887 5890 5897 5903 5899 5905 5904 5905 5907 5909 5912 5915 5914 5914 5915 5917 5918 5918 5918 5917 5917 5916 5915 5915 5915 5914 5914 5911 5911 5910 5909 5907 5906
5831 5835 5839 5842 5848 5857 5861 5860 5859 5862 5864 5872 5878 5882 5876 5875 5876 5881 5889 5900 5899 5898 5901 5903 5905 5906 5909 5911 5913 5914 5914 5915 5916 5917 5917 5916 5917 5915 5914 5914 5914 5913 5913 5911 5911 5911 5910 5908 5905
5824 5828 5831 5835 5840 5848 5855 5855 5861 5861 5860 5865 5875 5877 5867 5868 5873 5876 5885 5888 5897 5893 5897 5899 5902 5904 5906 5907 5909 5910 5912 5914 5915 5915 5916 5916 5916 5915 5913 5913 5913 5913 5912 5911 5910 5909 5909 5907 5905
5818 5820 5826 5830 5834 5838 5845 5850 5851 5855 5857 5859 5864 5870 5865 5862 5867 5872 5878 5885 5886 5894 5890 5896 5898 5900 5902 5904 5906 5908 5909 5912 5912 5913 5914 5914 5915 5913 5913 5912 5913 5912 5911 5910 5909 5908 5907 5905 5903
5811 5813 5817 5822 5826 5831 5839 5842 5843 5846 5850 5854 5853 5859 5859 5856 5856 5867 5872 5880 5873 5889 5890 5889 5893 5896 5898 5900 5901 5903 5905 5907 5909 5910 5911 5911 5912 5911 5911 5912 5911 5911 5910 5909 5908 5907 5906 5904 5903
5802 5805 5810 5817 5820 5824 5829 5829 5834 5838 5843 5846 5842 5852 5850 5849 5849 5857 5868 5874 5868 5878 5884 5886 5886 5890 5892 5895 5897 5899 5901 5903 5905 5906 5907 5908 5908 5909 5909 5910 5910 5910 5909 5907 5907 5906 5905 5904 5901
5794 5798 5805 5810 5812 5813 5819 5820 5823 5825 5829 5833 5838 5843 5842 5840 5845 5854 5865 5863 5865 5863 5875 5880 5882 5884 5887 5889 5892 5895 5896 5899 5901 5902 5903 5904 5904 5905 5906 5907 5907 5907 5906 5906 5905 5904 5904 5902 5900
5789 5794 5796 5801 5803 5804 5809 5814 5817 5816 5816 5823 5828 5830 5834 5832 5832 5841 5854 5856 5859 5853 5868 5873 5874 5877 5881 5885 5888 5890 5893 5895 5897 5899 5900 5900 5901 5901 5902 5903 5903 5903 5903 5903 5902 5901 5901 5899 5899
5781 5785 5787 5792 5793 5796 5799 5804 5807 5811 5804 5812 5813 5819 5819 5821 5822 5826 5840 5848 5853 5853 5855 5867 5871 5872 5874 5879 5881 5885 5888 5890 5893 5895 5895 5896 5897 5898 5898 5899 5900 5900 5900 5900 5899 5899 5898 5896 5894
5772 5776 5777 5782 5785 5787 5791 5795 5798 5802 5806 5803 5805 5806 5813 5811 5818 5819 5830 5837 5844 5848 5848 5854 5862 5866 5868 5872 5873 5877 5881 5885 5888 5889 5891 5891 5892 5893 5894 5896 5896 5895 5895 5897 5896 5895 5895 5892 5889
5766 5766 5768 5771 5775 5777 5779 5784 5789 5795 5795 5793 5794 5796 5805 5804 5807 5812 5816 5823 5830 5837 5841 5844 5853 5857 5858 5867 5867 5871 5875 5878 5879 5882 5885 5885 5886 5887 5889 5891 5891 5891 5891 5891 5891 5892 5892 5890 5889
5756 5756 5761 5765 5768 5769 5769 5772 5781 5785 5783 5785 5785 5788 5793 5801 5802 5806 5808 5813 5819 5828 5832 5834 5839 5848 5850 5853 5860 5862 5867 5870 5873 5876 5879 5880 5880 5881 5883 5884 5885 5886 5888 5887 5887 5887 5886 5885 5885
5749 5751 5754 5762 5759 5763 5764 5764 5775 5778 5781 5785 5785 5786 5789 5787 5790 5797 5796 5800 5805 5817 5822 5825 5827 5835 5841 5839 5845 5848 5852 5858 5863 5868 5872 5874 5874 5874 5876 5877 5876 5878 5881 5881 5884 5884 5882 5880 5878
5741 5743 5746 5753 5754 5754 5753 5757 5762 5765 5767 5774 5776 5776 5778 5779 5778 5776 5786 5789 5793 5803 5811 5812 5817 5821 5828 5830 5834 5839 5844 5844 5850 5856 5863 5864 5867 5869 5869 5870 5870 5870 5874 5875 5875 5877 5875 5873 5874
5735 5735 5738 5741 5747 5744 5744 5745 5750 5752 5754 5760 5764 5766 5767 5770 5770 5772 5772 5781 5782 5788 5799 5803 5806 5810 5816 5822 5825 5829 5833 5837 5839 5841 5850 5853 5857 5858 5861 5862 5863 5864 5867 5868 5868 5870 5871 5871 5867
5725 5726 5728 5730 5734 5733 5733 5737 5737 5741 5745 5748 5751 5754 5756 5760 5761 5761 5765 5772 5773 5777 5788 5792 5796 5799 5804 5810 5815 5817 5821 5827 5828 5835 5837 5841 5843 5846 5849 5853 5856 5858 5859 5859 5862 5866 5867 5866 5862
5715 5715 5717 5717 5725 5724 5724 5725 5727 5729 5734 5737 5741 5744 5748 5750 5750 5749 5756 5762 5764 5767 5777 5780 5783 5788 5791 5796 5801 5806 5808 5815 5818 5820 5827 5831 5833 5837 5841 5847 5848 5851 5852 5851 5854 5858 5858 5858 5853
5707 5706 5707 5711 5716 5715 5715 5713 5715 5720 5725 5731 5731 5733 5734 5737 5740 5741 5745 5750 5753 5756 5761 5768 5771 5773 5779 5783 5789 5793 5797 5803 5808 5810 5815 5821 5819 5822 5828 5834 5841 5843 5844 5845 5847 5848 5850 5850 5848
5698 5702 5701 5701 5701 5704 5708 5701 5707 5710 5714 5717 5720 5721 5723 5725 5727 5730 5732 5740 5742 5745 5750 5756 5762 5764 5766 5772 5777 5782 5784 5791 5797 5794 5801 5807 5809 5812 5814 5823 5830 5834 5836 5837 5841 5842 5842 5840 5841
5692 5694 5693 5692 5690 5690 5698 5693 5700 5705 5706 5708 5709 5712 5714 5717 5718 5718 5721 5726 5732 5736 5739 5744 5748 5752 5755 5758 5763 5768 5774 5777 5781 5782 5787 5792 5796 5804 5805 5811 5820 5824 5826 5829 5833 5832 5833 5833 5835
5685 5683 5683 5681 5681 5679 5690 5690 5690 5696 5697 5698 5699 5699 5703 5706 5706 5708 5710 5715 5720 5724 5730 5733 5736 5740 5744 5747 5749 5755 5758 5763 5766 5771 5774 5778 5785 5790 5793 5799 5806 5813 5816 5818 5818 5820 5822 5820 5824
5677 5675 5675 5674 5674 5674 5683 5676 5683 5686 5685 5686 5690 5691 5693 5697 5698 5699 5704 5705 5708 5712 5715 5722 5727 5729 5734 5737 5741 5743 5751 5754 5757 5760 5761 5763 5772 5776 5782 5785 5791 5801 5804 5805 5804 5805 5812 5813 5814
5668 5666 5664 5662 5665 5667 5669 5667 5678 5678 5676 5675 5681 5683 5682 5684 5690 5693 5695 5697 5700 5703 5706 5709 5715 5720 5723 5726 5729 5734 5738 5741 5745 5747 5749 5753 5756 5763 5771 5778 5780 5788 5792 5795 5795 5798 5801 5803 5802
5658 5661 5663 5656 5657 5657 5661 5666 5669 5670 5670 5672 5673 5676 5677 5678 5680 5682 5684 5687 5689 5694 5696 5700 5703 5708 5711 5713 5718 5722 5725 5728 5730 5734 5737 5741 5747 5753 5759 5764 5768 5776 5782 5789 5787 5785 5788 5789 5795
5650 5650 5652 5648 5647 5648 5652 5657 5661 5656 5660 5661 5665 5667 5668 5669 5671 5672 5674 5675 5678 5682 5687 5692 5694 5697 5701 5704 5706 5709 5713 5717 5720 5724 5727 5731 5734 5739 5743 5748 5756 5762 5769 5776 5776 5780 5784 5783 5785
5639 5639 5639 5638 5639 5641 5644 5650 5654 5651 5650 5652 5653 5652 5656 5659 5662 5662 5664 5665 5666 5671 5675 5679 5682 5685 5689 5692 5695 5698 5700 5702 5705 5710 5713 5717 5721 5726 5729 5738 5743 5748 5756 5763 5766 5771 5772 5775 5775
5627 5629 5631 5631 5633 5633 5636 5641 5642 5642 5641 5640 5645 5645 5649 5650 5649 5650 5652 5654 5656 5659 5662 5666 5669 5672 5675 5679 5682 5685 5688 5691 5694 5697 5701 5707 5712 5717 5722 5728 5730 5734 5742 5751 5754 5759 5764 5767 5767